| time (UTC) | temp F | wind direction | speed MPH | gust MPH | rain 1hr in | rain 24hr in | rain mn in | humidity % | barometer mb |
| 20260502163016 | 51 | 339 | 2.0 | 5.0 | 0.00 | 0.00 | 0.00 | 47 | 1019.9 |
| 20260502162037 | 51 | 319 | 4.0 | 7.0 | 0.00 | 0.00 | 0.00 | 46 | 1019.9 |
| 20260502161036 | 51 | 349 | 3.0 | 9.0 | 0.00 | 0.00 | 0.00 | 45 | 1019.9 |
| 20260502152017 | 50 | 330 | 2.0 | 7.0 | 0.00 | 0.00 | 0.00 | 48 | 1020.1 |
| 20260502151017 | 49 | 44 | 1.0 | 5.0 | 0.00 | 0.00 | 0.00 | 46 | 1020.1 |
| 20260502123017 | 42 | 329 | 0.0 | 3.0 | 0.00 | 0.00 | 0.00 | 75 | 1019.9 |
| 20260502122017 | 40 | 79 | 0.0 | 1.0 | 0.00 | 0.00 | 0.00 | 78 | 1019.8 |
| 20260502121017 | 38 | 35 | 0.0 | 1.0 | 0.00 | 0.00 | 0.00 | 82 | 1019.8 |
| 20260502115018 | 34 | 78 | 0.0 | 1.0 | 0.00 | 0.00 | 0.00 | 92 | 1019.5 |
| 20260502114018 | 33 | 0.0 | 0.0 | 0.00 | 0.00 | 0.00 | 96 | 1019.4 | |
| 20260502113018 | 33 | 0.0 | 0.0 | 0.00 | 0.00 | 0.00 | 98 | 1019.3 | |
| 20260502112027 | 31 | 0.0 | 0.0 | 0.00 | 0.00 | 0.00 | 99 | 1019.2 | |
| 20260502111027 | 30 | 328 | 0.0 | 0.0 | 0.00 | 0.00 | 0.00 | 98 | 1019.1 |
| 20260502110028 | 29 | 29 | 0.0 | 0.0 | 0.00 | 0.00 | 0.00 | 99 | 1019.0 |
| 20260502105028 | 29 | 0.0 | 0.0 | 0.00 | 0.00 | 0.00 | 98 | 1019.0 | |
| 20260502104048 | 29 | 0.0 | 0.0 | 0.00 | 0.00 | 0.00 | 98 | 1019.0 | |
| 20260502103048 | 29 | 0.0 | 0.0 | 0.00 | 0.00 | 0.00 | 98 | 1018.9 | |
| 20260502102028 | 29 | 0.0 | 0.0 | 0.00 | 0.00 | 0.00 | 98 | 1018.9 | |
| 20260502101048 | 29 | 0.0 | 0.0 | 0.00 | 0.00 | 0.00 | 98 | 1018.9 | |
| 20260502091029 | 30 | 0.0 | 0.0 | 0.00 | 0.00 | 0.00 | 96 | 1018.8 | |
| 20260502071017 | 34 | 0.0 | 0.0 | 0.00 | 0.00 | 0.00 | 89 | 1018.9 | |
| 20260502070017 | 35 | 0.0 | 0.0 | 0.00 | 0.00 | 0.00 | 88 | 1019.0 | |
| 20260502065116 | 35 | 0.0 | 0.0 | 0.00 | 0.00 | 0.00 | 87 | 1019.1 | |
| 20260502064016 | 35 | 0.0 | 0.0 | 0.00 | 0.00 | 0.00 | 87 | 1019.2 | |
| 20260502063016 | 35 | 302 | 0.0 | 0.0 | 0.00 | 0.00 | 0.00 | 87 | 1019.2 |
| 20260502062016 | 35 | 357 | 0.0 | 0.0 | 0.00 | 0.00 | 0.00 | 85 | 1019.2 |
| 20260502061016 | 35 | 0.0 | 0.0 | 0.00 | 0.00 | 0.00 | 85 | 1019.2 | |
| 20260502060017 | 36 | 107 | 0.0 | 0.0 | 0.00 | 0.00 | 0.00 | 84 | 1019.3 |
| 20260502055057 | 36 | 0.0 | 0.0 | 0.00 | 0.00 | 0.00 | 82 | 1019.3 | |
| 20260502054017 | 37 | 0.0 | 0.0 | 0.00 | 0.00 | 0.00 | 80 | 1019.4 | |
| 20260502053019 | 38 | 81 | 0.0 | 1.0 | 0.00 | 0.00 | 0.00 | 79 | 1019.4 |
| 20260502052017 | 38 | 81 | 0.0 | 1.0 | 0.00 | 0.00 | 0.00 | 78 | 1019.4 |
| 20260502051019 | 38 | 190 | 0.0 | 0.0 | 0.00 | 0.00 | 0.00 | 78 | 1019.4 |
| 20260502050018 | 38 | 167 | 0.0 | 1.0 | 0.00 | 0.00 | 0.00 | 77 | 1019.5 |
| 20260502045018 | 39 | 94 | 0.0 | 2.0 | 0.00 | 0.00 | 0.00 | 75 | 1019.5 |
| 20260502044018 | 39 | 101 | 2.0 | 4.0 | 0.00 | 0.00 | 0.00 | 74 | 1019.4 |
| 20260502043018 | 39 | 98 | 3.0 | 5.0 | 0.00 | 0.00 | 0.00 | 74 | 1019.3 |
| 20260502042019 | 39 | 104 | 3.0 | 5.0 | 0.00 | 0.00 | 0.00 | 74 | 1019.3 |
| 20260502041019 | 39 | 96 | 2.0 | 4.0 | 0.00 | 0.00 | 0.00 | 75 | 1019.4 |
| 20260502040019 | 39 | 100 | 3.0 | 5.0 | 0.00 | 0.00 | 0.00 | 74 | 1019.3 |
| 20260502035019 | 39 | 105 | 3.0 | 5.0 | 0.00 | 0.00 | 0.00 | 73 | 1019.3 |
| 20260502034019 | 39 | 106 | 5.0 | 7.0 | 0.00 | 0.00 | 0.00 | 73 | 1019.2 |
| 20260502033040 | 39 | 112 | 4.0 | 6.0 | 0.00 | 0.00 | 0.00 | 73 | 1019.1 |
| 20260502032040 | 39 | 108 | 4.0 | 7.0 | 0.00 | 0.02 | 0.00 | 74 | 1019.1 |
| 20260502031015 | 39 | 103 | 4.0 | 7.0 | 0.00 | 0.03 | 0.00 | 74 | 1019.1 |
| 20260502030015 | 39 | 107 | 5.0 | 7.0 | 0.00 | 0.13 | 0.00 | 74 | 1019.0 |
| 20260502025015 | 39 | 105 | 4.0 | 7.0 | 0.00 | 0.15 | 0.00 | 75 | 1018.9 |
| 20260502024016 | 39 | 107 | 4.0 | 6.0 | 0.00 | 0.17 | 0.00 | 75 | 1018.9 |
| 20260502023016 | 39 | 111 | 4.0 | 7.0 | 0.00 | 0.17 | 0.00 | 75 | 1018.8 |
| 20260502022016 | 40 | 104 | 5.0 | 8.0 | 0.00 | 0.17 | 0.00 | 74 | 1018.6 |
| 20260502021016 | 40 | 109 | 4.0 | 8.0 | 0.00 | 0.18 | 0.00 | 75 | 1018.5 |
| 20260502020016 | 40 | 111 | 5.0 | 9.0 | 0.00 | 0.21 | 0.00 | 74 | 1018.4 |
| 20260502015017 | 40 | 106 | 5.0 | 8.0 | 0.00 | 0.21 | 0.00 | 74 | 1018.3 |
| 20260502014017 | 41 | 102 | 6.0 | 11.0 | 0.00 | 0.21 | 0.00 | 73 | 1018.0 |
| 20260502013016 | 41 | 117 | 6.0 | 13.0 | 0.00 | 0.21 | 0.00 | 73 | 1017.8 |
| 20260502012017 | 42 | 103 | 5.0 | 9.0 | 0.00 | 0.21 | 0.00 | 73 | 1017.7 |
| 20260502011017 | 42 | 102 | 6.0 | 12.0 | 0.00 | 0.21 | 0.00 | 73 | 1017.7 |
| 20260502010017 | 43 | 111 | 6.0 | 11.0 | 0.00 | 0.21 | 0.00 | 73 | 1017.5 |
| 20260502005017 | 43 | 102 | 5.0 | 9.0 | 0.00 | 0.21 | 0.00 | 73 | 1017.3 |
| 20260502004017 | 44 | 104 | 5.0 | 11.0 | 0.00 | 0.21 | 0.00 | 73 | 1017.3 |
| 20260502003018 | 44 | 111 | 5.0 | 12.0 | 0.00 | 0.21 | 0.00 | 72 | 1017.1 |
| 20260502002017 | 45 | 108 | 5.0 | 9.0 | 0.00 | 0.21 | 0.00 | 72 | 1017.1 |
| 20260502001018 | 45 | 109 | 5.0 | 9.0 | 0.00 | 0.21 | 0.00 | 71 | 1017.1 |
| 20260502000036 | 46 | 104 | 5.0 | 9.0 | 0.00 | 0.21 | 0.00 | 71 | 1016.9 |
| 20260501235015 | 46 | 103 | 5.0 | 8.0 | 0.00 | 0.21 | 0.00 | 71 | 1017.0 |
| 20260501234016 | 46 | 101 | 4.0 | 9.0 | 0.00 | 0.21 | 0.00 | 70 | 1017.0 |
| 20260501233016 | 46 | 98 | 4.0 | 7.0 | 0.00 | 0.21 | 0.00 | 69 | 1017.0 |
| 20260501232016 | 47 | 98 | 3.0 | 6.0 | 0.00 | 0.21 | 0.00 | 68 | 1017.1 |
| 20260501231017 | 47 | 106 | 4.0 | 9.0 | 0.00 | 0.21 | 0.00 | 68 | 1017.1 |
| 20260501230017 | 47 | 100 | 4.0 | 7.0 | 0.00 | 0.21 | 0.00 | 67 | 1017.1 |
| 20260501225016 | 47 | 104 | 4.0 | 7.0 | 0.00 | 0.21 | 0.00 | 67 | 1017.1 |
| 20260501224037 | 48 | 100 | 3.0 | 7.0 | 0.00 | 0.21 | 0.00 | 67 | 1017.1 |
| 20260501223017 | 48 | 103 | 4.0 | 8.0 | 0.00 | 0.22 | 0.00 | 66 | 1017.2 |
| 20260501222017 | 48 | 97 | 2.0 | 5.0 | 0.00 | 0.22 | 0.00 | 65 | 1017.2 |
| 20260501221017 | 48 | 103 | 4.0 | 7.0 | 0.00 | 0.22 | 0.00 | 66 | 1017.2 |
| 20260501220017 | 48 | 106 | 3.0 | 5.0 | 0.00 | 0.23 | 0.00 | 67 | 1017.2 |
| 20260501215017 | 48 | 108 | 3.0 | 8.0 | 0.00 | 0.23 | 0.00 | 67 | 1017.2 |
| 20260501214018 | 48 | 110 | 4.0 | 7.0 | 0.00 | 0.24 | 0.00 | 68 | 1017.2 |
| 20260501213018 | 47 | 114 | 3.0 | 7.0 | 0.00 | 0.24 | 0.00 | 68 | 1017.1 |
| 20260501212018 | 47 | 98 | 4.0 | 9.0 | 0.00 | 0.25 | 0.00 | 69 | 1017.1 |
| 20260501211015 | 47 | 100 | 5.0 | 10.0 | 0.00 | 0.25 | 0.00 | 69 | 1017.1 |
| 20260501210036 | 47 | 101 | 4.0 | 7.0 | 0.00 | 0.25 | 0.00 | 70 | 1017.0 |
| 20260501205016 | 47 | 101 | 4.0 | 9.0 | 0.00 | 0.25 | 0.00 | 71 | 1017.1 |
| 20260501204016 | 47 | 98 | 5.0 | 10.0 | 0.00 | 0.25 | 0.00 | 71 | 1017.0 |
| 20260501203016 | 48 | 100 | 5.0 | 9.0 | 0.00 | 0.25 | 0.00 | 71 | 1017.0 |
| 20260501202016 | 48 | 100 | 5.0 | 10.0 | 0.00 | 0.25 | 0.00 | 70 | 1016.9 |
| 20260501201016 | 49 | 109 | 5.0 | 11.0 | 0.00 | 0.25 | 0.00 | 68 | 1016.8 |
| 20260501200017 | 49 | 103 | 3.0 | 10.0 | 0.00 | 0.25 | 0.00 | 65 | 1016.9 |
| 20260501195017 | 49 | 100 | 1.0 | 5.0 | 0.00 | 0.25 | 0.00 | 65 | 1016.9 |
| 20260501194017 | 50 | 102 | 3.0 | 7.0 | 0.00 | 0.25 | 0.00 | 64 | 1016.9 |
| 20260501193037 | 51 | 49 | 2.0 | 5.0 | 0.00 | 0.25 | 0.00 | 52 | 1016.8 |
| 20260501192017 | 51 | 53 | 3.0 | 7.0 | 0.00 | 0.25 | 0.00 | 52 | 1016.8 |
| 20260501191037 | 50 | 0 | 1.0 | 4.0 | 0.00 | 0.25 | 0.00 | 53 | 1016.7 |
| 20260501190018 | 51 | 343 | 2.0 | 6.0 | 0.00 | 0.25 | 0.00 | 53 | 1016.7 |
| 20260501185017 | 51 | 331 | 2.0 | 7.0 | 0.00 | 0.25 | 0.00 | 53 | 1016.6 |
| 20260501184018 | 51 | 5 | 3.0 | 6.0 | 0.00 | 0.25 | 0.00 | 52 | 1016.5 |
| 20260501183018 | 51 | 318 | 2.0 | 4.0 | 0.00 | 0.25 | 0.00 | 53 | 1016.5 |
| 20260501182015 | 50 | 355 | 1.0 | 5.0 | 0.00 | 0.25 | 0.00 | 52 | 1016.5 |
| 20260501181039 | 50 | 346 | 2.0 | 7.0 | 0.00 | 0.25 | 0.00 | 54 | 1016.4 |
| 20260501180016 | 50 | 348 | 2.0 | 6.0 | 0.00 | 0.25 | 0.00 | 54 | 1016.4 |
| 20260501175016 | 50 | 332 | 3.0 | 6.0 | 0.00 | 0.25 | 0.00 | 54 | 1016.5 |
| 20260501174036 | 50 | 332 | 2.0 | 6.0 | 0.00 | 0.25 | 0.00 | 55 | 1016.4 |
| 20260501173016 | 50 | 338 | 3.0 | 7.0 | 0.00 | 0.25 | 0.00 | 56 | 1016.4 |
| 20260501172016 | 50 | 33 | 2.0 | 4.0 | 0.00 | 0.25 | 0.00 | 57 | 1016.4 |
| 20260501171016 | 50 | 6 | 1.0 | 5.0 | 0.00 | 0.25 | 0.00 | 57 | 1016.3 |
| 20260501170037 | 50 | 16 | 2.0 | 5.0 | 0.00 | 0.25 | 0.00 | 59 | 1016.3 |
| 20260501165017 | 49 | 340 | 1.0 | 4.0 | 0.00 | 0.25 | 0.00 | 61 | 1016.3 |
| 20260501164017 | 50 | 323 | 2.0 | 5.0 | 0.00 | 0.25 | 0.00 | 59 | 1016.3 |